Location: *
(35.8942°N, 23.3025°E)
Time: 22:51:43
(UTC+00:00)

MOS 1 Rocket - Pass Details

Date: 21 September 2021
Orbit: 614 x 830 km, 97.4° (Epoch: 22 October)

Event Time Altitude Azimuth Distance (km) Brightness Sun altitude
Rises 02:35:24 0° 177° (S) 3,106 6.5 -20.5°
Reaches altitude 10° 02:37:45 10° 182° (S) 2,156 5.6 -20.0°
Maximum altitude 02:42:21 55° 260° (W) 805 3.2 -19.1°
Drops below altitude 10° 02:46:45 10° 339° (NNW) 2,052 5.7 -18.3°
Sets 02:48:57 0° 343° (NNW) 2,942 6.5 -17.8°
